[[{"header":{"parameterUnit":"m.s-1","parameterCategory":1,"la1":30.2991,"la2":30.254,"lo1":-89.0895,"lo2":-89.0444,"dy":0.0017,"dx":0.0017,"nx":28,"ny":28,"refTime":"2024-05-05T21:00:00:Z","depth":0,"parameterNumber":2,"parameterNumberName":"U-component_of_WINDS"},"data":[0,0,0,0,0,0,0,0,0,0,0,0,0,0,0,0,0,0,0,0,0,0,0,0,0,0,0,0,0,0,0,0,0,0,0,0,0,0,0,0,0,0,0,0,0,0,0,0,0,0,0,0,0,0,0,0,0,0,-2.4818,-2.4818,0,-2.4812,-2.4812,-2.4812,-2.4769,-2.4768,-2.4767,-2.4766,-2.476,-2.476,-2.4761,0,0,0,0,0,0,0,0,0,0,0,0,0,-2.4795,-2.4796,-2.4818,-2.4818,-2.4818,-2.4812,-2.4812,-2.4812,-2.4769,-2.4768,-2.4766,-2.4765,-2.4759,-2.476,-2.4761,0,0,0,0,0,0,0,0,0,0,0,0,0,-2.4799,-2.4796,-2.4818,-2.4796,-2.4794,-2.4812,-2.4812,-2.4812,-2.4769,-2.4768,-2.4766,-2.4765,-2.4759,-2.476,-2.4761,-2.48,0,0,-2.4765,-2.4766,0,0,0,0,0,0,0,0,-2.4798,-2.4799,-2.4799,-2.4798,-2.4795,-2.4789,-2.4801,-2.4808,-2.477,-2.4779,-2.4766,-2.4764,-2.4771,-2.4771,-2.4773,-2.48,-2.48,-2.4765,-2.4766,-2.4767,-2.4767,0,0,0,0,0,0,0,-2.4798,-2.4799,-2.4816,-2.4799,-2.4797,-2.4787,-2.4786,-2.4802,-2.4784,-2.4778,-2.4775,-2.4774,-2.4769,-2.4772,-2.4773,-2.48,-2.4765,-2.4766,-2.4767,-2.4768,-2.4858,-2.486,0,0,0,0,0,0,-2.4801,-2.48,-2.4816,-2.4815,-2.4793,-2.4788,-2.4787,-2.4793,-2.4783,-2.478,-2.4776,-2.4772,-2.4771,-2.4771,-2.4772,-2.4816,-2.4767,-2.4768,-2.4768,-2.4857,-2.4859,-2.4861,0,0,0,0,0,0,-2.4801,-2.4803,-2.4816,-2.4807,-2.4808,-2.4791,-2.4797,-2.4794,-2.4796,-2.4782,-2.4778,-2.4782,-2.477,-2.4771,-2.4794,-2.4816,-2.4768,-2.4769,-2.4855,-2.4857,-2.486,-2.4906,0,0,0,0,0,0,-2.48,-2.4803,-2.4817,-2.4807,-2.4808,-2.4837,-2.4799,-2.4795,-2.4798,-2.4794,-2.4787,-2.4784,-2.4769,-2.4792,-2.4795,-2.4817,-2.477,-2.4853,-2.4856,-2.4859,-2.4902,-2.4909,-2.4916,0,0,0,0,0,-2.4799,-2.483,-2.4818,-2.482,-2.4825,-2.4838,-2.4839,-2.482,-2.48,-2.4814,-2.4805,-2.4784,-2.4814,-2.4795,-2.4798,-2.482,-2.4851,-2.4855,-2.4859,-2.4899,-2.4908,-2.4916,0,0,0,0,0,0,-2.4843,-2.4829,-2.4815,-2.4843,-2.4842,-2.4831,-2.4848,-2.4831,-2.4835,-2.4831,-2.4809,-2.4807,-2.4833,-2.4829,-2.4809,-2.4857,-2.4829,-2.4833,-2.4858,-2.4867,-2.4874,-2.4873,-2.4771,0,0,0,0,0,-2.4856,-2.4867,-2.4854,-2.4881,-2.4881,-2.4865,-2.487,-2.4856,-2.4854,-2.4854,-2.4846,-2.4846,-2.4855,-2.4861,-2.4869,-2.4902,-2.49,-2.4919,-2.4926,-2.4932,-2.4935,-2.4952,-2.496,-2.4873,-2.4873,-2.4873,0,0,-2.4883,-2.4876,-2.4885,-2.489,-2.4887,-2.49,-2.4865,-2.488,-2.4889,-2.4856,-2.4876,-2.4872,-2.487,-2.4898,-2.491,-2.4895,-2.4959,-2.4937,-2.4941,-2.4941,-2.4957,-2.4965,-2.4973,-2.4875,-2.4875,-2.4875,0,0,-2.4937,-2.4934,-2.4955,-2.4954,-2.4951,-2.494,-2.4946,-2.4938,-2.4933,-2.4953,-2.4929,-2.494,-2.4957,-2.4956,-2.4957,-2.5014,-2.4994,-2.5017,-2.5052,-2.5069,-2.5076,-2.5082,-2.5101,-2.5108,-2.5021,-2.5022,-2.5022,0,-2.497,-2.4988,-2.4969,-2.4985,-2.4988,-2.496,-2.4981,-2.4981,-2.4981,-2.4984,-2.4967,-2.4987,-2.4984,-2.5011,-2.5025,-2.5028,-2.5033,-2.5017,-2.5077,-2.5082,-2.5088,-2.5105,-2.5112,-2.5024,-2.5024,-2.5024,-2.5023,0,-2.5029,-2.5041,-2.5059,-2.5059,-2.5064,-2.5083,-2.5068,-2.5075,-2.5062,-2.5053,-2.5075,-2.507,-2.5076,-2.5082,-2.5069,-2.5108,-2.5099,-2.5081,-2.5051,-2.5099,-2.5115,-2.5122,-2.5028,-2.5027,-2.5026,-2.5026,0,0,-2.5107,-2.5098,-2.5105,-2.5105,-2.51,-2.511,-2.5128,-2.5134,-2.514,-2.5143,-2.5157,-2.5172,-2.5155,-2.5157,-2.5144,-2.5159,-2.5203,-2.5138,-2.5138,-2.5149,-2.5244,-2.5257,-2.5265,-2.5191,-2.5192,-2.5193,-2.5244,0,-2.5158,-2.5188,-2.5172,-2.5204,-2.5215,-2.519,-2.5206,-2.5205,-2.5198,-2.5207,-2.52,-2.521,-2.5187,-2.5188,-2.5202,-2.5194,-2.5221,-2.5191,-2.5203,-2.5204,-2.5202,-2.5274,-2.5287,-2.5335,-2.525,-2.5251,-2.5252,0,-2.5221,-2.5225,-2.5258,-2.5251,-2.5256,-2.527,-2.5274,-2.5283,-2.5283,-2.5277,-2.528,-2.5264,-2.5281,-2.5254,-2.5278,-2.5258,-2.5263,-2.526,-2.5261,-2.526,-2.5229,-2.5272,-2.535,-2.5356,-2.5262,-2.5261,-2.5261,0,-2.5273,-2.5287,-2.5308,-2.5309,-2.5303,-2.5314,-2.5312,-2.5309,-2.5314,-2.5319,-2.5321,-2.5328,-2.5331,-2.5337,-2.5323,-2.5305,-2.5349,-2.5321,-2.5344,-2.5344,-2.5352,-2.5351,-2.5429,-2.5359,-2.5359,-2.5359,-2.5359,0,-2.533,-2.5351,-2.5332,-2.5344,-2.5367,-2.535,-2.5373,-2.5368,-2.5367,-2.5379,-2.5358,-2.537,-2.5352,-2.5362,-2.5352,-2.5373,-2.5375,-2.537,-2.5367,-2.5371,-2.5371,-2.5371,-2.5367,-2.5361,-2.536,-2.536,-2.5359,0,-2.5391,-2.5379,-2.54,-2.5393,-2.5392,-2.5409,-2.5403,-2.5415,-2.5407,-2.5422,-2.5425,-2.5413,-2.5424,-2.5412,-2.5422,-2.5415,-2.5443,-2.5436,-2.5443,-2.544,-2.5463,-2.546,-2.5542,-2.5551,-2.5477,-2.5478,-2.5478,0,-2.5427,-2.5442,-2.5437,-2.5443,-2.5442,-2.5453,-2.5458,-2.5442,-2.5448,-2.5449,-2.5461,-2.547,-2.5476,-2.5495,-2.5487,-2.5495,-2.5486,-2.5515,-2.5487,-2.5491,-2.5485,-2.5483,-2.5484,-2.5519,-2.552,-2.5521,-2.5522,0,-2.5492,-2.5485,-2.5493,-2.5499,-2.5505,-2.5509,-2.5511,-2.5518,-2.5502,-2.551,-2.552,-2.5525,-2.5536,-2.5545,-2.5551,-2.5549,-2.5533,-2.5531,-2.5536,-2.5539,-2.5542,-2.5539,-2.5456,-2.5528,-2.5528,-2.5527,-2.5527,-2.5527,-2.554,-2.5552,-2.555,-2.5559,-2.556,-2.5563,-2.5573,-2.5568,-2.5576,-2.5583,-2.5574,-2.5587,-2.5587,-2.5593,-2.5593,-2.5604,-2.5591,-2.56,-2.5601,-2.5603,-2.5606,-2.5542,-2.5605,-2.5605,-2.5605,-2.5604,-2.5604,0,-2.5602,-2.56,-2.5608,-2.5612,-2.562,-2.5605,-2.5607,-2.5614,-2.5626,-2.5627,-2.5634,-2.5647,-2.5656,-2.565,-2.5658,-2.5667,-2.566,-2.567,-2.5667,-2.5667,-2.5617,-2.561,-2.5675,-2.5675,-2.5675,-2.5675,-2.5675,-2.5675,-2.5634,-2.5654,-2.5648,-2.5668,-2.5666,-2.5678,-2.5681,-2.5684,-2.5685,-2.5699,-2.5707,-2.5703,-2.5701,-2.5709,-2.5717,-2.5715,-2.5718,-2.573,-2.5725,-2.5678,-2.5671,-2.5664,-2.5658,-2.5732,-2.5732,-2.5775,-2.5775,-2.5775]},{"header":{"parameterUnit":"m.s-1","parameterCategory":1,"la1":30.2991,"la2":30.254,"lo1":-89.0895,"lo2":-89.0444,"dy":0.0017,"dx":0.0017,"nx":28,"ny":28,"refTime":"2024-05-05T21:00:00:Z","depth":0,"parameterNumber":3,"parameterNumberName":"V-component_of_WINDS"},"data":[0,0,0,0,0,0,0,0,0,0,0,0,0,0,0,0,0,0,0,0,0,0,0,0,0,0,0,0,0,0,0,0,0,0,0,0,0,0,0,0,0,0,0,0,0,0,0,0,0,0,0,0,0,0,0,0,0,0,3.8808,3.8809,0,3.8858,3.8858,3.8859,3.8893,3.8893,3.8893,3.8893,3.894,3.8941,3.8942,0,0,0,0,0,0,0,0,0,0,0,0,0,3.8738,3.874,3.8808,3.8809,3.8809,3.8857,3.8858,3.8859,3.8893,3.8893,3.8893,3.8893,3.894,3.8941,3.8942,0,0,0,0,0,0,0,0,0,0,0,0,0,3.8776,3.874,3.8808,3.8832,3.8835,3.8857,3.8858,3.8859,3.8892,3.8893,3.8893,3.8894,3.8939,3.8941,3.8942,3.8944,0,0,3.8947,3.8947,0,0,0,0,0,0,0,0,3.8774,3.8779,3.8828,3.883,3.8833,3.8869,3.8851,3.8887,3.8892,3.887,3.8893,3.8894,3.8916,3.8919,3.8928,3.8946,3.8948,3.8947,3.8948,3.8948,3.8949,0,0,0,0,0,0,0,3.8771,3.8777,3.8827,3.8828,3.8832,3.8839,3.8845,3.8858,3.889,3.8872,3.8875,3.8881,3.8917,3.8926,3.8929,3.8949,3.8947,3.8948,3.8949,3.895,3.8971,3.897,0,0,0,0,0,0,3.8766,3.8774,3.8826,3.8829,3.8804,3.884,3.8846,3.8857,3.889,3.8896,3.888,3.8882,3.8923,3.8927,3.8931,3.8936,3.8948,3.895,3.8951,3.8971,3.8971,3.897,0,0,0,0,0,0,3.8764,3.877,3.8824,3.8802,3.881,3.8841,3.8853,3.8858,3.8867,3.8896,3.8902,3.8883,3.8924,3.8929,3.8941,3.8938,3.8951,3.8952,3.8971,3.8971,3.897,3.8944,0,0,0,0,0,0,3.8762,3.8769,3.8771,3.8802,3.8811,3.8834,3.8852,3.8859,3.887,3.8873,3.8901,3.8906,3.8925,3.8938,3.8942,3.894,3.8953,3.8972,3.8971,3.8971,3.8946,3.8943,3.8941,0,0,0,0,0,3.8759,3.8761,3.8771,3.8777,3.8814,3.8834,3.8839,3.8862,3.8869,3.8871,3.889,3.8905,3.8937,3.8939,3.8944,3.8942,3.8972,3.8971,3.8971,3.8947,3.8944,3.8941,0,0,0,0,0,0,3.8727,3.8765,3.8777,3.8789,3.8808,3.884,3.8842,3.8857,3.8874,3.8875,3.8902,3.8908,3.8917,3.893,3.8932,3.8945,3.8956,3.8956,3.8937,3.8934,3.8931,3.8928,3.8954,0,0,0,0,0,3.8721,3.8735,3.8767,3.8775,3.8784,3.8811,3.8821,3.8837,3.8857,3.8865,3.8885,3.8903,3.8917,3.8926,3.894,3.8947,3.8954,3.8948,3.8946,3.8944,3.8944,3.8949,3.8947,3.8968,3.8968,3.8968,0,0,3.8709,3.8732,3.8739,3.8769,3.8786,3.8799,3.8818,3.8831,3.8841,3.8866,3.888,3.8895,3.8916,3.8926,3.8931,3.8937,3.8939,3.8943,3.8941,3.8942,3.8948,3.8946,3.8944,3.8967,3.8967,3.8967,0,0,3.8695,3.8713,3.8722,3.8739,3.8764,3.8783,3.8784,3.8814,3.8825,3.8839,3.8859,3.887,3.8894,3.8909,3.892,3.8911,3.8925,3.8915,3.8902,3.8907,3.8905,3.8904,3.8902,3.89,3.8914,3.8914,3.8914,0,3.8677,3.8699,3.8724,3.8737,3.8749,3.8774,3.8783,3.8797,3.8825,3.8833,3.8839,3.887,3.8887,3.8901,3.8899,3.8906,3.8909,3.8912,3.8904,3.8903,3.8902,3.89,3.8899,3.8913,3.8913,3.8913,3.8913,0,3.8676,3.869,3.8694,3.8723,3.8735,3.8745,3.8771,3.878,3.8795,3.8812,3.8825,3.8846,3.8866,3.887,3.8883,3.8885,3.8889,3.8899,3.8911,3.8898,3.8897,3.8896,3.8911,3.8911,3.8912,3.8912,0,0,3.8643,3.8686,3.8687,3.8701,3.8731,3.8742,3.8752,3.8773,3.8781,3.8799,3.8809,3.8828,3.8838,3.885,3.8866,3.887,3.8862,3.888,3.8881,3.8877,3.8866,3.8859,3.8858,3.8871,3.8871,3.8871,3.8865,0,3.8635,3.8658,3.868,3.8694,3.8708,3.8732,3.8741,3.876,3.8776,3.8789,3.8806,3.882,3.8832,3.8839,3.8844,3.8862,3.8861,3.8863,3.888,3.8881,3.8876,3.8857,3.885,3.8843,3.8864,3.8864,3.8864,0,3.8628,3.8647,3.8663,3.8692,3.8699,3.8707,3.8728,3.874,3.8761,3.8772,3.8786,3.8803,3.8814,3.8823,3.8839,3.884,3.8849,3.8858,3.8858,3.8862,3.8872,3.8861,3.8841,3.884,3.8863,3.8863,3.8863,0,3.8604,3.8633,3.8647,3.8658,3.8692,3.8697,3.8711,3.8733,3.8744,3.8761,3.8768,3.8786,3.8796,3.8809,3.8829,3.8834,3.8843,3.8854,3.8853,3.8852,3.8854,3.8854,3.8837,3.8858,3.8858,3.8858,3.8858,0,3.8593,3.8602,3.8637,3.8646,3.8656,3.8681,3.869,3.8706,3.8725,3.8737,3.8757,3.8767,3.8793,3.8805,3.8821,3.8832,3.8836,3.8845,3.8849,3.8844,3.8843,3.8851,3.8852,3.8857,3.8857,3.8857,3.8857,0,3.8569,3.8593,3.8609,3.864,3.8648,3.8655,3.8681,3.8689,3.8706,3.872,3.8724,3.875,3.8766,3.8788,3.8809,3.882,3.8829,3.8835,3.8823,3.8826,3.8823,3.8824,3.8811,3.8811,3.883,3.883,3.883,0,3.8561,3.8569,3.8601,3.8611,3.8625,3.8639,3.8651,3.8675,3.8687,3.8711,3.8717,3.8734,3.875,3.8773,3.8794,3.881,3.8818,3.8812,3.882,3.8815,3.8819,3.8819,3.882,3.881,3.881,3.881,3.8809,0,3.8544,3.8556,3.8573,3.8594,3.8608,3.8625,3.8643,3.8649,3.8677,3.8688,3.8705,3.8717,3.874,3.8757,3.8777,3.879,3.8804,3.8807,3.8807,3.8803,3.8795,3.88,3.8819,3.8807,3.8807,3.8807,3.8808,3.8808,3.8529,3.8537,3.8562,3.858,3.8596,3.8612,3.8622,3.8641,3.8656,3.8678,3.869,3.8707,3.8727,3.8755,3.8768,3.878,3.8786,3.8787,3.8787,3.8787,3.8786,3.8792,3.8784,3.8784,3.8784,3.8784,3.8784,0,3.8515,3.8531,3.8548,3.8573,3.8587,3.86,3.8621,3.8631,3.8646,3.8665,3.868,3.8699,3.8716,3.8737,3.8755,3.8761,3.8768,3.8765,3.8765,3.8768,3.8779,3.8778,3.8759,3.8759,3.8759,3.8759,3.8759,3.8759,3.8509,3.8524,3.8538,3.8561,3.8577,3.8595,3.8606,3.8621,3.8636,3.8657,3.8672,3.8686,3.8705,3.8725,3.874,3.8746,3.8752,3.8747,3.8755,3.8765,3.8767,3.8769,3.8768,3.8748,3.8748,3.8743,3.8743,3.8743]}]]